Regional Weather Roundup
Issued by NWS Newport/Morehead, NC

Home | Current Version | Previous Version | Text Only | Print | Product List | Glossary On
Versions: 1 2 3 4 5 6 7 8 9 10 11 12 13 14 15 16 17 18 19 20 21 22 23 24 25 26 27 28 29 30 31 32 33 34 35 36 37 38 39 40 41 42 43 44 45 46 47 48 49 50
000
ASUS42 KMHX 260410
RWRMHX
WEATHER ROUNDUP FOR EASTERN NORTH CAROLINA
NATIONAL WEATHER SERVICE NEWPORT/MOREHEAD CITY NC
1100 PM EST TUE NOV 25 2014

NOTE: "FAIR" INDICATES FEW OR NO CLOUDS BELOW 12,000 FEET
WITH NO SIGNIFICANT WEATHER AND/OR OBSTRUCTIONS TO VISIBILITY

NCZ015>017-031-032-045>047-102-103-260500-
NORTH COAST

CITY           SKY/WX    TMP DP  RH WIND       PRES   REMARKS
EDENTON        RAIN      53  52  97 NE5       30.08F
ELIZABETH CITY RAIN      57  53  86 N6        30.10F FOG
KITTY HAWK     DRIZZLE   58  58  99 CALM      30.07F
MANTEO         DRIZZLE   57  56  99 N8        30.08F

$$

NCZ045>047-081-094-103-104-260500-
CENTRAL COAST

CITY           SKY/WX    TMP DP  RH WIND       PRES   REMARKS
FRISCO         LGT RAIN  57  57 100 NE7       30.06R FOG
SWANQUARTER      N/A     57 N/A N/A NE6       30.03S

$$

NCZ095-097-098-100-101-260500-
SOUTHERN COAST

CITY           SKY/WX    TMP DP  RH WIND       PRES   REMARKS
BEAUFORT       HVY RAIN  62  62 100 N6        30.05S FOG
CEDAR ISLAND     N/A     57 N/A N/A N6        30.09S
JACKSONVILLE   LGT RAIN  60  59  96 E8        30.00F FOG
PINEY ISLAND   LGT RAIN  62  59  90 N7        30.05R FOG
WILMINGTON     RAIN      63  62  97 E6        30.00F FOG


$$

NCZ011>013-027>030-043-044-078>080-089-090>093-098-260500-
COASTAL PLAIN

CITY           SKY/WX    TMP DP  RH WIND       PRES   REMARKS
AHOSKIE        LGT RAIN  49  47  96 N5        30.10F
CLINTON        DRIZZLE   54  54 100 NE3       30.03F
ELIZABETHTOWN  DRIZZLE   54  54 100 CALM      30.01F
GOLDSBORO      CLOUDY    54  53  98 CALM      30.02F
GREENVILLE     CLOUDY    54  54 100 NE3       30.07F
HAVELOCK       LGT RAIN  62  60  93 NE5       30.06F
KENANSVILLE    CLOUDY    54  52  95 NE3       30.03F
KINSTON        CLOUDY    55  54  97 N5        30.05F
NEW BERN       LGT RAIN  61  58  90 E7        30.05F FOG
RICHLANDS      CLOUDY    57  54  88 NE10      30.01F
ROCKY MOUNT    LGT RAIN  52  51  97 N7        30.07F
WASHINGTON     CLOUDY    56  55  97 NE6       30.07F
WHITEVILLE     CLOUDY    59  57  94 N5        29.97F FOG

$$

AMZ130-135-150-152-154-156-158-170-250-252-270-ANZ085-086-088-633-658-670-260500-
MARINE OBSERVATIONS

STATION/POSITION TIME  TEMP    WIND        PRES    WAVE   SWELL
                       AIR SEA DIR/SP/G            HT/PER HT/PER
                 (UTC) (F)     (DEG/KT/KT) (MB)    (FT/S) (FT/S)
CHESAPEAKE LIGHT 0300   56      50/ 13/ 14 1020.4
64 E VA BEACH    0400   62 65   50/  8/ 10 1018.3    4/ 9   5/ 9
DUCK             0400   58 58   40/ 10/ 11 1018.0
2 E DUCK         0400      58                N/A     3/ 8   2/11
10 NE DUCK       0400      59                N/A     4/ 8   2/11
OREGON INLET     0400   59 58   10/ 11/ 13 1017.5
13E OREGON INLT  0400      65                N/A     4/ 8   2/11
HATTERAS CG      0400   57 62   30/  7/ 10 1018.4
DIAMOND BUOY     0400   68      CALM  /  4 1017.8    5/ 9   5/ 9
17 S OCRACOKE    NOT AVBL
CAPE LOOKOUT     0300   62      30/ 11/ 13 1016.9
BEAUFORT LAB     0400   62 58   20/  6/  7 1016.6
30 SE NEW RIVER  0400   66 68   60/ 12/ 14 1017.1    4/ 9   5/ 9
5 SE WRIGHTSVLE  0300   58 59   50/  8/  8 1016.5
225 S CAPE HAT   0318   74 74  180/ 14/ 16 1018.3    6/ 7   5/ 7
41 SE CHARLESTON 0400   73 75  130/ 21/ 25 1011.0    5/ 9   3/ 9

$$


USA.gov is the U.S. government's official web portal to all federal, state and local government web resources and services.